Location: downtown San Diego
(32.7310°N, 117.1990°W)
Time: 23:50:08
(UTC-07:00)

USA 81 - Pass Details

Date: 19 May 2017
Orbit: 785 x 788 km, 85.0° (Epoch: 30 May)

Event Time Altitude Azimuth Distance (km) Brightness Sun altitude
Exits shadow 20:59:55 16° 159° (SSE) 1,943 5.6 -14.6°
Maximum altitude 21:03:54 50° 89° (E) 995 4.3 -15.3°
Drops below altitude 10° 21:08:59 10° 15° (NNE) 2,353 6.8 -16.2°
Sets 21:11:24 0° 11° (N) 3,286 7.7 -16.6°
